Home > Weather > Flekkefjord > Past weeks

Flag for Norway Past Weather in Flekkefjord, Norway — Yesterday and Last 2 Weeks

Now
54 °F

Cool.


Feels Like: 54 °F
Forecast: 55 / 61 °F
Wind: 2 mph from Northeast

Location: Lista Fyr

Current Time: Aug 28, 2016 at 2:29:52 AM

Latest Report: Aug 28, 2016 at 2:00 AM


Visibility: N/A

Pressure: 30.07 "Hg

Humidity: 100%

Dew Point: 54 °F

Location of FlekkefjordLocation

Past Weather in Flekkefjord — Graph

°F

Flekkefjord Temperature Yesterday

Maximum temperature yesterday: 65 °F (at 4:00 PM)
Minimum temperature yesterday: 54 °F (at 11:00 PM)
Average temperature yesterday: 61 °F

High & Low Weather Summary for the Past Weeks

 TemperatureHumidityPressure
High68 °F (Aug 19, 1:00 PM)100% (Aug 13, 1:00 AM)30.27 "Hg (Aug 13, 1:00 AM)
Low49 °F (Aug 16, 6:00 AM)67% (Aug 19, 2:00 PM)29.70 "Hg (Aug 20, 3:00 PM)
Average60 °F95%30.01 "Hg
* Reported Aug 13 1:00 AM — Aug 28 1:00 AM, Flekkefjord, Weather by CustomWeather, © 2016

Note: Actual official high and low records may vary slightly from our data, if they occured in-between our weather recording intervals... More about our weather records

Advertising

Flekkefjord Weather History for the Previous 24 Hours

Scroll right to see more
 ConditionsComfort  
Time TempWeatherWind HumidityBarometerVisibility
1:00 AM
Sun, Aug 28
54 °FCool.2 mph100%30.07 "HgN/A
12:00 AM52 °FCool.1 mphN/A30.09 "HgN/A
11:00 PM
Sat, Aug 27
54 °FCool.1 mphN/A30.09 "HgN/A
10:00 PM60 °FCool.2 mph94%30.10 "HgN/A
9:00 PM60 °FCool.2 mph85%30.11 "HgN/A
8:00 PM61 °FOvercast.3 mph88%30.11 "Hg17 mi
7:00 PM62 °FCool.5 mph83%30.13 "HgN/A
6:00 PM63 °FMild.5 mph79%30.14 "HgN/A
5:00 PM64 °FMild.5 mph75%30.15 "HgN/A
4:00 PM65 °FMild.5 mph75%30.15 "HgN/A
3:00 PM64 °FMild.5 mph78%30.15 "HgN/A
2:00 PM64 °FPartly sunny.5 mph79%30.15 "Hg19 mi
1:00 PM63 °FMild.5 mph73%30.14 "HgN/A
12:00 PM63 °FMild.5 mph78%30.14 "HgN/A
11:00 AM62 °FScattered clouds.5 mph83%30.12 "Hg25 mi
10:00 AM62 °FCool.5 mph86%30.11 "HgN/A
9:00 AM61 °FCool.6 mph85%30.08 "HgN/A
8:00 AM60 °FPassing clouds.8 mph91%30.07 "Hg25 mi
7:00 AM60 °FCool.9 mph99%30.06 "HgN/A
6:00 AM60 °FCool.9 mph95%30.04 "HgN/A
5:00 AM60 °FCool.9 mph97%30.03 "HgN/A
4:00 AM60 °FCool.9 mph99%30.02 "HgN/A
3:00 AM60 °FCool.10 mph97%30.02 "HgN/A
2:00 AM60 °FCool.12 mph96%30.01 "HgN/A
Weather by CustomWeather, © 2016

See weather overviewHow to use our weather pages